User: anonymous   Login
Location: Plum
(40.5000°N, 79.7500°W)
Time: 05:16:56
(UTC-05:00)
Language:

MOZ.5/SAFIR/RUBIN 5/SL-8 - Orbit

View from above orbital plane
View from above orbital plane
View from above satellite
View from above satellite

Ground track
Ground track

The orbit data is extracted from the following two-line orbital elements,

1 28898U 05043G   16338.54550541  .00000069  00000-0  23525-4 0  9993
2 28898  97.8990 131.1398 0021169  83.6378 276.7233 14.60149543591281
Epoch (UTC): 03 December 2016 13:05:31
Eccentricity: 0.0021169
inclination: 97.8990°
perigee height: 678 km
apogee height: 707 km
right ascension of ascending node: 131.1398°
argument of perigee: 83.6378°
revolutions per day: 14.60149543
mean anomaly at epoch: 276.7233°
orbit number at epoch: 59128

The dashed part of the orbit path shows where the satellite is in the earth's shadow,  

DLR